Location: Brno
(49.2000°N, 16.6330°E)
Time: 04:29:03
(UTC+02:00)

Meteor 1-4 Rocket - Visible Passes

Search period start: 03 September 2015 00:00
Search period end: 13 September 2015 00:00
Orbit: 460 x 520 km, 81.2° (Epoch: 01 September)

Date Brightness Start Highest point End Pass type
(mag) Time Alt. Az. Time Alt. Az. Time Alt. Az.
03 Sep 6.1 05:25:45 10° ESE 05:27:20 13° E 05:29:05 10° ENE visible
07 Sep 4.9 05:27:05 10° SSE 05:30:25 30° E 05:33:45 10° NNE visible
08 Sep 5.4 05:04:37 10° SE 05:07:30 21° E 05:10:26 10° NE visible
09 Sep 5.7 04:42:26 10° SE 04:44:36 15° E 04:46:53 10° NE visible
10 Sep 6.0 04:20:58 10° E 04:21:43 11° E 04:22:39 10° ENE visible
11 Sep 2.8 05:29:46 10° S 05:33:33 80° E 05:37:18 10° NNE visible
12 Sep 3.4 05:06:53 10° S 05:10:33 53° E 05:14:12 10° NNE visible
